Time,TemperatureF,DewpointF,PressureIn,WindDirection,WindDirectionDegrees,WindSpeedMPH,WindSpeedGustMPH,Humidity,HourlyPrecipIn,Conditions,Clouds,dailyrainin,SoftwareType,DateUTC
2013-07-13 00:01:00,63.9,62.7,30.15,North,5,0.0,0.0,96,0.00,,,0.00,Wunderground v.1.15,2013-07-13 04:01:00,
2013-07-13 00:02:00,63.9,62.7,30.15,North,5,0.0,0.0,96,0.00,,,0.00,Wunderground v.1.15,2013-07-13 04:02:00,
2013-07-13 00:06:00,63.8,62.6,30.15,North,5,0.0,0.0,96,0.00,,,0.00,Wunderground v.1.15,2013-07-13 04:06:00,
2013-07-13 00:07:00,63.8,62.6,30.15,North,5,0.0,0.0,96,0.00,,,0.00,Wunderground v.1.15,2013-07-13 04:07:00,
2013-07-13 00:11:00,63.8,62.6,30.15,North,5,0.0,0.0,96,0.00,,,0.00,Wunderground v.1.15,2013-07-13 04:11:00,
2013-07-13 00:16:00,63.6,62.4,30.15,North,5,0.0,0.0,96,0.00,,,0.00,Wunderground v.1.15,2013-07-13 04:16:00,
2013-07-13 00:21:00,63.5,62.3,30.15,North,5,0.0,0.0,96,0.00,,,0.00,Wunderground v.1.15,2013-07-13 04:21:00,
2013-07-13 00:27:00,63.4,62.5,30.15,North,5,0.0,0.0,97,0.00,,,0.00,Wunderground v.1.15,2013-07-13 04:27:00,
2013-07-13 00:32:00,63.3,62.4,30.15,North,5,0.0,0.0,97,0.00,,,0.00,Wunderground v.1.15,2013-07-13 04:32:00,
2013-07-13 00:37:00,63.3,62.4,30.15,North,5,0.0,0.0,97,0.00,,,0.00,Wunderground v.1.15,2013-07-13 04:37:00,
2013-07-13 00:43:00,63.2,62.3,30.15,North,5,0.0,0.0,97,0.00,,,0.00,Wunderground v.1.15,2013-07-13 04:43:00,
2013-07-13 00:49:00,63.1,62.2,30.15,North,5,0.0,0.0,97,0.00,,,0.00,Wunderground v.1.15,2013-07-13 04:49:00,
2013-07-13 00:55:00,63.1,62.2,30.15,North,5,0.0,0.0,97,0.00,,,0.00,Wunderground v.1.15,2013-07-13 04:55:00,
2013-07-13 01:00:00,63.0,62.1,30.15,North,5,0.0,0.0,97,0.00,,,0.00,Wunderground v.1.15,2013-07-13 05:00:00,
2013-07-13 01:05:00,63.1,62.2,30.15,North,5,0.0,0.0,97,0.00,,,0.00,Wunderground v.1.15,2013-07-13 05:05:00,
2013-07-13 01:10:00,63.1,62.2,30.15,North,5,0.0,0.0,97,0.00,,,0.00,Wunderground v.1.15,2013-07-13 05:10:00,
2013-07-13 01:16:00,63.1,62.2,30.14,North,5,0.0,0.0,97,0.00,,,0.00,Wunderground v.1.15,2013-07-13 05:16:00,
2013-07-13 01:21:00,63.0,62.1,30.14,North,5,0.0,0.0,97,0.00,,,0.00,Wunderground v.1.15,2013-07-13 05:21:00,
2013-07-13 01:26:00,63.0,62.1,30.14,North,5,0.0,0.0,97,0.00,,,0.00,Wunderground v.1.15,2013-07-13 05:26:00,
2013-07-13 01:31:00,63.0,62.1,30.14,North,5,0.0,0.0,97,0.00,,,0.00,Wunderground v.1.15,2013-07-13 05:31:00,
2013-07-13 01:36:00,63.0,62.1,30.14,North,5,0.0,0.0,97,0.00,,,0.00,Wunderground v.1.15,2013-07-13 05:36:00,
2013-07-13 01:42:00,62.9,62.0,30.14,North,5,0.0,0.0,97,0.00,,,0.00,Wunderground v.1.15,2013-07-13 05:42:00,
2013-07-13 01:47:00,62.8,61.9,30.14,North,5,0.0,0.0,97,0.00,,,0.00,Wunderground v.1.15,2013-07-13 05:47:00,
2013-07-13 01:53:00,62.8,61.9,30.14,North,5,0.0,0.0,97,0.00,,,0.00,Wunderground v.1.15,2013-07-13 05:53:00,
2013-07-13 01:58:00,62.7,61.8,30.14,North,5,0.0,0.0,97,0.00,,,0.00,Wunderground v.1.15,2013-07-13 05:58:00,
2013-07-13 02:03:00,62.7,61.8,30.14,North,5,0.0,0.0,97,0.00,,,0.00,Wunderground v.1.15,2013-07-13 06:03:00,
2013-07-13 02:08:00,62.6,62.0,30.14,North,5,0.0,0.0,98,0.00,,,0.00,Wunderground v.1.15,2013-07-13 06:08:00,
2013-07-13 02:13:00,62.6,62.6,30.14,North,5,0.0,0.0,100,0.00,,,0.00,Wunderground v.1.15,2013-07-13 06:13:00,
2013-07-13 02:18:00,62.5,61.6,30.14,North,5,0.0,0.0,97,0.00,,,0.00,Wunderground v.1.15,2013-07-13 06:18:00,
2013-07-13 02:23:00,62.5,61.6,30.14,North,5,0.0,0.0,97,0.00,,,0.00,Wunderground v.1.15,2013-07-13 06:23:00,
2013-07-13 02:28:00,62.5,61.6,30.14,North,5,0.0,0.0,97,0.00,,,0.00,Wunderground v.1.15,2013-07-13 06:28:00,
2013-07-13 02:33:00,62.5,61.9,30.13,North,5,0.0,0.0,98,0.00,,,0.00,Wunderground v.1.15,2013-07-13 06:33:00,
2013-07-13 02:38:00,62.5,61.9,30.13,North,5,0.0,0.0,98,0.00,,,0.00,Wunderground v.1.15,2013-07-13 06:38:00,
2013-07-13 02:43:00,62.5,61.9,30.13,North,5,0.0,0.0,98,0.00,,,0.00,Wunderground v.1.15,2013-07-13 06:43:00,
2013-07-13 02:48:00,62.4,61.8,30.13,North,5,0.0,0.0,98,0.00,,,0.00,Wunderground v.1.15,2013-07-13 06:48:00,
2013-07-13 02:53:00,62.3,61.7,30.13,North,5,0.0,0.0,98,0.00,,,0.00,Wunderground v.1.15,2013-07-13 06:53:00,
2013-07-13 02:58:00,62.2,61.6,30.13,North,5,0.0,0.0,98,0.00,,,0.00,Wunderground v.1.15,2013-07-13 06:58:00,
2013-07-13 03:03:00,62.2,61.6,30.13,North,5,0.0,0.0,98,0.00,,,0.00,Wunderground v.1.15,2013-07-13 07:03:00,
2013-07-13 03:08:00,62.2,61.6,30.13,North,5,0.0,0.0,98,0.00,,,0.00,Wunderground v.1.15,2013-07-13 07:08:00,
2013-07-13 03:13:00,62.3,61.7,30.13,North,5,0.0,0.0,98,0.00,,,0.00,Wunderground v.1.15,2013-07-13 07:13:00,
2013-07-13 03:18:00,62.3,61.7,30.13,North,5,0.0,0.0,98,0.00,,,0.00,Wunderground v.1.15,2013-07-13 07:18:00,
2013-07-13 03:23:00,62.3,61.7,30.13,North,5,0.0,0.0,98,0.00,,,0.00,Wunderground v.1.15,2013-07-13 07:23:00,
2013-07-13 03:28:00,62.2,61.6,30.13,North,5,0.0,0.0,98,0.00,,,0.00,Wunderground v.1.15,2013-07-13 07:28:00,
2013-07-13 03:33:00,62.2,61.6,30.13,North,5,0.0,0.0,98,0.00,,,0.00,Wunderground v.1.15,2013-07-13 07:33:00,
2013-07-13 03:38:00,62.1,61.5,30.13,North,5,0.0,0.0,98,0.00,,,0.00,Wunderground v.1.15,2013-07-13 07:38:00,
2013-07-13 03:43:00,62.2,61.6,30.13,North,5,0.0,0.0,98,0.00,,,0.00,Wunderground v.1.15,2013-07-13 07:43:00,
2013-07-13 03:48:00,62.2,61.6,30.13,North,5,0.0,0.0,98,0.00,,,0.00,Wunderground v.1.15,2013-07-13 07:48:00,
2013-07-13 03:53:00,62.2,61.6,30.13,North,5,0.0,0.0,98,0.00,,,0.00,Wunderground v.1.15,2013-07-13 07:53:00,
2013-07-13 03:58:00,62.2,61.6,30.13,North,5,0.0,0.0,98,0.00,,,0.00,Wunderground v.1.15,2013-07-13 07:58:00,
2013-07-13 04:04:00,62.2,61.6,30.13,North,5,0.0,0.0,98,0.00,,,0.00,Wunderground v.1.15,2013-07-13 08:04:00,
2013-07-13 04:09:00,62.2,61.6,30.13,North,5,0.0,0.0,98,0.00,,,0.00,Wunderground v.1.15,2013-07-13 08:09:00,
2013-07-13 04:14:00,62.2,61.6,30.13,North,5,0.0,0.0,98,0.00,,,0.00,Wunderground v.1.15,2013-07-13 08:14:00,
2013-07-13 04:19:00,62.3,61.7,30.13,North,5,0.0,0.0,98,0.00,,,0.00,Wunderground v.1.15,2013-07-13 08:19:00,
2013-07-13 04:24:00,62.3,61.7,30.13,North,5,0.0,0.0,98,0.00,,,0.00,Wunderground v.1.15,2013-07-13 08:24:00,
2013-07-13 04:29:00,62.3,61.7,30.13,North,5,0.0,0.0,98,0.00,,,0.00,Wunderground v.1.15,2013-07-13 08:29:00,
2013-07-13 04:34:00,62.3,61.7,30.13,North,5,0.0,0.0,98,0.00,,,0.00,Wunderground v.1.15,2013-07-13 08:34:00,
2013-07-13 04:39:00,62.5,61.9,30.13,North,5,0.0,0.0,98,0.00,,,0.00,Wunderground v.1.15,2013-07-13 08:39:00,
2013-07-13 04:44:00,62.6,62.0,30.13,North,5,0.0,0.0,98,0.00,,,0.00,Wunderground v.1.15,2013-07-13 08:44:00,
2013-07-13 04:49:00,62.6,62.0,30.13,North,5,0.0,0.0,98,0.00,,,0.00,Wunderground v.1.15,2013-07-13 08:49:00,
2013-07-13 04:54:00,62.6,62.0,30.13,North,5,0.0,0.0,98,0.00,,,0.00,Wunderground v.1.15,2013-07-13 08:54:00,
2013-07-13 04:59:00,62.7,62.1,30.14,North,5,0.0,0.0,98,0.00,,,0.00,Wunderground v.1.15,2013-07-13 08:59:00,
2013-07-13 05:04:00,62.8,62.2,30.14,North,5,0.0,0.0,98,0.00,,,0.00,Wunderground v.1.15,2013-07-13 09:04:00,
2013-07-13 05:09:00,62.7,62.1,30.14,North,5,0.0,0.0,98,0.00,,,0.00,Wunderground v.1.15,2013-07-13 09:09:00,
2013-07-13 05:15:00,62.7,62.1,30.14,North,5,0.0,0.0,98,0.00,,,0.00,Wunderground v.1.15,2013-07-13 09:15:00,
2013-07-13 05:20:00,62.7,62.1,30.14,North,5,0.0,0.0,98,0.00,,,0.00,Wunderground v.1.15,2013-07-13 09:20:00,
2013-07-13 05:25:00,62.7,62.1,30.14,North,5,0.0,0.0,98,0.00,,,0.00,Wunderground v.1.15,2013-07-13 09:25:00,
2013-07-13 05:30:00,62.9,62.3,30.14,North,5,0.0,0.0,98,0.00,,,0.00,Wunderground v.1.15,2013-07-13 09:30:00,
2013-07-13 05:35:00,63.0,62.4,30.15,North,5,0.0,0.0,98,0.00,,,0.00,Wunderground v.1.15,2013-07-13 09:35:00,
2013-07-13 05:40:00,63.1,62.5,30.15,North,5,0.0,0.0,98,0.00,,,0.00,Wunderground v.1.15,2013-07-13 09:40:00,
2013-07-13 05:45:00,63.2,62.6,30.15,North,5,0.0,0.0,98,0.00,,,0.00,Wunderground v.1.15,2013-07-13 09:45:00,
2013-07-13 05:50:00,63.3,62.7,30.15,North,5,0.0,0.0,98,0.00,,,0.00,Wunderground v.1.15,2013-07-13 09:50:00,
2013-07-13 05:55:00,63.4,62.8,30.15,North,5,0.0,0.0,98,0.00,,,0.00,Wunderground v.1.15,2013-07-13 09:55:00,
2013-07-13 06:00:00,63.5,63.2,30.15,North,5,0.0,0.0,99,0.00,,,0.00,Wunderground v.1.15,2013-07-13 10:00:00,
2013-07-13 06:05:00,63.5,63.2,30.15,North,5,0.0,0.0,99,0.00,,,0.00,Wunderground v.1.15,2013-07-13 10:05:00,
2013-07-13 06:10:00,63.6,63.3,30.15,North,5,0.0,0.0,99,0.00,,,0.00,Wunderground v.1.15,2013-07-13 10:10:00,
2013-07-13 06:15:00,63.8,63.5,30.15,North,5,0.0,0.0,99,0.00,,,0.00,Wunderground v.1.15,2013-07-13 10:15:00,
2013-07-13 06:20:00,63.8,63.2,30.15,North,5,0.0,0.0,98,0.00,,,0.00,Wunderground v.1.15,2013-07-13 10:20:00,
2013-07-13 06:25:00,63.9,63.3,30.16,North,5,0.0,0.0,98,0.00,,,0.00,Wunderground v.1.15,2013-07-13 10:25:00,
2013-07-13 06:30:00,64.0,63.7,30.16,North,5,0.0,0.0,99,0.00,,,0.00,Wunderground v.1.15,2013-07-13 10:30:00,
2013-07-13 06:35:00,64.1,63.8,30.15,North,5,0.0,0.0,99,0.00,,,0.00,Wunderground v.1.15,2013-07-13 10:35:00,
2013-07-13 06:40:00,64.3,64.0,30.15,North,5,0.0,0.0,99,0.00,,,0.00,Wunderground v.1.15,2013-07-13 10:40:00,
2013-07-13 06:45:00,64.4,64.1,30.16,North,5,0.0,0.0,99,0.00,,,0.00,Wunderground v.1.15,2013-07-13 10:45:00,
2013-07-13 06:50:00,64.4,64.1,30.16,North,5,0.0,0.0,99,0.00,,,0.00,Wunderground v.1.15,2013-07-13 10:50:00,
2013-07-13 06:55:00,64.5,64.2,30.16,North,5,0.0,0.0,99,0.00,,,0.00,Wunderground v.1.15,2013-07-13 10:55:00,
2013-07-13 07:00:00,64.7,64.4,30.16,North,5,0.0,0.0,99,0.00,,,0.00,Wunderground v.1.15,2013-07-13 11:00:00,
2013-07-13 07:05:00,64.9,64.6,30.16,North,5,0.0,0.0,99,0.00,,,0.00,Wunderground v.1.15,2013-07-13 11:05:00,
2013-07-13 07:10:00,65.1,64.8,30.16,North,5,0.0,0.0,99,0.00,,,0.00,Wunderground v.1.15,2013-07-13 11:10:00,
2013-07-13 07:11:00,65.1,64.8,30.16,North,5,0.0,0.0,99,0.00,,,0.00,Wunderground v.1.15,2013-07-13 11:11:00,
2013-07-13 07:16:00,65.3,65.0,30.16,North,5,0.0,0.0,99,0.00,,,0.00,Wunderground v.1.15,2013-07-13 11:16:00,
2013-07-13 07:21:00,65.5,65.2,30.16,North,5,0.0,1.0,99,0.00,,,0.00,Wunderground v.1.15,2013-07-13 11:21:00,
2013-07-13 07:26:00,65.8,65.5,30.16,North,5,0.0,1.0,99,0.00,,,0.00,Wunderground v.1.15,2013-07-13 11:26:00,
2013-07-13 07:31:00,66.0,65.7,30.17,North,5,0.0,0.0,99,0.00,,,0.00,Wunderground v.1.15,2013-07-13 11:31:00,
2013-07-13 07:36:00,66.3,66.0,30.17,North,5,0.0,0.0,99,0.00,,,0.00,Wunderground v.1.15,2013-07-13 11:36:00,
2013-07-13 07:41:00,66.5,66.2,30.16,North,5,0.0,1.0,99,0.00,,,0.00,Wunderground v.1.15,2013-07-13 11:41:00,
2013-07-13 07:46:00,66.8,66.5,30.16,North,5,0.0,1.0,99,0.00,,,0.00,Wunderground v.1.15,2013-07-13 11:46:00,
2013-07-13 07:51:00,67.1,66.8,30.17,North,5,0.0,1.0,99,0.00,,,0.00,Wunderground v.1.15,2013-07-13 11:51:00,
2013-07-13 07:56:00,67.3,67.0,30.17,North,5,2.0,2.0,99,0.00,,,0.00,Wunderground v.1.15,2013-07-13 11:56:00,
2013-07-13 08:01:00,67.3,67.0,30.17,North,5,1.0,3.0,99,0.00,,,0.00,Wunderground v.1.15,2013-07-13 12:01:00,
2013-07-13 08:06:00,67.4,67.1,30.17,NE,41,2.0,3.0,99,0.00,,,0.00,Wunderground v.1.15,2013-07-13 12:06:00,
2013-07-13 08:11:00,67.5,67.2,30.17,NE,41,1.0,1.0,99,0.00,,,0.00,Wunderground v.1.15,2013-07-13 12:11:00,
2013-07-13 08:16:00,67.7,67.4,30.17,NE,55,3.0,4.0,99,0.00,,,0.00,Wunderground v.1.15,2013-07-13 12:16:00,
2013-07-13 08:21:00,68.0,67.7,30.17,NE,55,0.0,3.0,99,0.00,,,0.00,Wunderground v.1.15,2013-07-13 12:21:00,
2013-07-13 08:26:00,68.1,67.5,30.17,ENE,61,2.0,4.0,98,0.00,,,0.00,Wunderground v.1.15,2013-07-13 12:26:00,
2013-07-13 08:31:00,68.4,67.8,30.18,ENE,69,0.0,3.0,98,0.00,,,0.00,Wunderground v.1.15,2013-07-13 12:31:00,
2013-07-13 08:37:00,69.2,68.3,30.18,North,9,0.0,4.0,97,0.00,,,0.00,Wunderground v.1.15,2013-07-13 12:37:00,
2013-07-13 08:42:00,70.1,68.3,30.18,NNE,13,0.0,5.0,94,0.00,,,0.00,Wunderground v.1.15,2013-07-13 12:42:00,
2013-07-13 08:47:00,71.1,68.3,30.18,ENE,65,4.0,5.0,91,0.00,,,0.00,Wunderground v.1.15,2013-07-13 12:47:00,
2013-07-13 08:52:00,72.2,68.1,30.18,NNE,12,2.0,5.0,87,0.00,,,0.00,Wunderground v.1.15,2013-07-13 12:52:00,
2013-07-13 08:57:00,72.9,67.8,30.19,NE,44,2.0,6.0,84,0.00,,,0.00,Wunderground v.1.15,2013-07-13 12:57:00,
2013-07-13 09:02:00,73.2,67.7,30.19,East,80,3.0,5.0,83,0.00,,,0.00,Wunderground v.1.15,2013-07-13 13:02:00,
2013-07-13 09:07:00,73.7,67.5,30.18,NNE,28,3.0,5.0,81,0.00,,,0.00,Wunderground v.1.15,2013-07-13 13:07:00,
2013-07-13 09:12:00,74.2,68.0,30.18,ENE,76,5.0,6.0,81,0.00,,,0.00,Wunderground v.1.15,2013-07-13 13:12:00,
2013-07-13 09:17:00,74.9,67.9,30.18,ENE,77,5.0,6.0,79,0.00,,,0.00,Wunderground v.1.15,2013-07-13 13:17:00,
2013-07-13 09:22:00,75.7,68.7,30.18,East,80,3.0,7.0,79,0.00,,,0.00,Wunderground v.1.15,2013-07-13 13:22:00,
2013-07-13 09:27:00,76.5,69.1,30.18,ENE,71,4.0,7.0,78,0.00,,,0.00,Wunderground v.1.15,2013-07-13 13:27:00,
2013-07-13 09:32:00,77.0,68.1,30.18,East,92,3.0,5.0,74,0.00,,,0.00,Wunderground v.1.15,2013-07-13 13:32:00,
2013-07-13 09:37:00,77.6,67.9,30.18,East,79,1.0,5.0,72,0.00,,,0.00,Wunderground v.1.15,2013-07-13 13:37:00,
2013-07-13 09:42:00,78.0,68.2,30.18,East,88,0.0,6.0,72,0.00,,,0.00,Wunderground v.1.15,2013-07-13 13:42:00,
2013-07-13 09:47:00,78.1,68.3,30.18,East,88,0.0,6.0,72,0.00,,,0.00,Wunderground v.1.15,2013-07-13 13:47:00,
2013-07-13 09:52:00,78.5,69.5,30.18,NE,35,2.0,5.0,74,0.00,,,0.00,Wunderground v.1.15,2013-07-13 13:52:00,
2013-07-13 09:57:00,79.0,68.8,30.17,ENE,78,2.0,5.0,71,0.00,,,0.00,Wunderground v.1.15,2013-07-13 13:57:00,
2013-07-13 10:02:00,79.4,68.8,30.17,ENE,76,0.0,5.0,70,0.00,,,0.00,Wunderground v.1.15,2013-07-13 14:02:00,
2013-07-13 10:07:00,79.2,68.6,30.18,ENE,73,2.0,5.0,70,0.00,,,0.00,Wunderground v.1.15,2013-07-13 14:07:00,
2013-07-13 10:12:00,79.1,67.6,30.18,SE,128,0.0,4.0,68,0.00,,,0.00,Wunderground v.1.15,2013-07-13 14:12:00,
2013-07-13 10:17:00,78.6,68.0,30.18,SE,136,3.0,6.0,70,0.00,,,0.00,Wunderground v.1.15,2013-07-13 14:17:00,
2013-07-13 10:22:00,78.1,67.5,30.18,East,94,0.0,2.0,70,0.00,,,0.00,Wunderground v.1.15,2013-07-13 14:22:00,
2013-07-13 10:27:00,78.1,68.3,30.18,East,89,0.0,3.0,72,0.00,,,0.00,Wunderground v.1.15,2013-07-13 14:27:00,
2013-07-13 10:32:00,78.4,67.8,30.18,East,82,3.0,3.0,70,0.00,,,0.00,Wunderground v.1.15,2013-07-13 14:32:00,
2013-07-13 10:37:00,78.8,68.2,30.18,ENE,71,5.0,8.0,70,0.00,,,0.00,Wunderground v.1.15,2013-07-13 14:37:00,
2013-07-13 10:42:00,79.1,68.5,30.17,ENE,77,4.0,8.0,70,0.00,,,0.00,Wunderground v.1.15,2013-07-13 14:42:00,
2013-07-13 10:47:00,79.8,69.6,30.18,East,86,0.0,10.0,71,0.00,,,0.00,Wunderground v.1.15,2013-07-13 14:47:00,
2013-07-13 10:52:00,79.9,68.4,30.17,SE,138,2.0,3.0,68,0.00,,,0.00,Wunderground v.1.15,2013-07-13 14:52:00,
2013-07-13 10:57:00,80.2,69.5,30.17,ENE,74,0.0,8.0,70,0.00,,,0.00,Wunderground v.1.15,2013-07-13 14:57:00,
2013-07-13 11:02:00,80.6,69.9,30.17,North,5,7.0,7.0,70,0.00,,,0.00,Wunderground v.1.15,2013-07-13 15:02:00,
2013-07-13 11:07:00,80.8,70.1,30.18,North,11,7.0,9.0,70,0.00,,,0.00,Wunderground v.1.15,2013-07-13 15:07:00,
2013-07-13 11:12:00,81.1,70.0,30.18,NNE,14,8.0,9.0,69,0.00,,,0.00,Wunderground v.1.15,2013-07-13 15:12:00,
2013-07-13 11:17:00,80.5,69.8,30.18,ENE,65,1.0,9.0,70,0.00,,,0.00,Wunderground v.1.15,2013-07-13 15:17:00,
2013-07-13 11:22:00,79.7,69.0,30.18,ENE,65,8.0,10.0,70,0.00,,,0.00,Wunderground v.1.15,2013-07-13 15:22:00,
2013-07-13 11:27:00,78.9,69.5,30.18,ENE,77,5.0,10.0,73,0.00,,,0.00,Wunderground v.1.15,2013-07-13 15:27:00,
2013-07-13 11:32:00,78.7,69.3,30.18,NE,53,4.0,9.0,73,0.00,,,0.00,Wunderground v.1.15,2013-07-13 15:32:00,
2013-07-13 11:37:00,78.6,69.6,30.18,East,88,6.0,9.0,74,0.00,,,0.00,Wunderground v.1.15,2013-07-13 15:37:00,
2013-07-13 11:42:00,79.0,70.0,30.18,ENE,74,4.0,6.0,74,0.00,,,0.00,Wunderground v.1.15,2013-07-13 15:42:00,
2013-07-13 11:47:00,79.3,69.5,30.18,NNE,15,0.0,9.0,72,0.00,,,0.00,Wunderground v.1.15,2013-07-13 15:47:00,
2013-07-13 11:52:00,79.7,69.9,30.18,North,10,3.0,8.0,72,0.00,,,0.00,Wunderground v.1.15,2013-07-13 15:52:00,
2013-07-13 11:57:00,80.5,69.4,30.18,East,82,0.0,8.0,69,0.00,,,0.00,Wunderground v.1.15,2013-07-13 15:57:00,
2013-07-13 12:02:00,81.0,70.3,30.18,ENE,76,4.0,10.0,70,0.00,,,0.00,Wunderground v.1.15,2013-07-13 16:02:00,
2013-07-13 12:07:00,81.6,70.4,30.18,ENE,63,2.0,10.0,69,0.00,,,0.00,Wunderground v.1.15,2013-07-13 16:07:00,
2013-07-13 12:12:00,81.7,70.5,30.18,East,81,6.0,9.0,69,0.00,,,0.00,Wunderground v.1.15,2013-07-13 16:12:00,
2013-07-13 12:17:00,82.0,70.8,30.18,ENE,76,4.0,9.0,69,0.00,,,0.00,Wunderground v.1.15,2013-07-13 16:17:00,
2013-07-13 12:22:00,82.2,70.6,30.18,ENE,74,2.0,8.0,68,0.00,,,0.00,Wunderground v.1.15,2013-07-13 16:22:00,
2013-07-13 12:28:00,81.9,69.9,30.18,ENE,63,3.0,8.0,67,0.00,,,0.00,Wunderground v.1.15,2013-07-13 16:28:00,
2013-07-13 12:33:00,81.3,69.7,30.18,ENE,71,5.0,10.0,68,0.00,,,0.00,Wunderground v.1.15,2013-07-13 16:33:00,
2013-07-13 12:38:00,80.9,70.2,30.18,ENE,78,8.0,10.0,70,0.00,,,0.00,Wunderground v.1.15,2013-07-13 16:38:00,
2013-07-13 12:43:00,81.1,70.8,30.18,ENE,77,4.0,11.0,71,0.00,,,0.00,Wunderground v.1.15,2013-07-13 16:43:00,
2013-07-13 12:48:00,81.6,70.9,30.18,East,92,7.0,11.0,70,0.00,,,0.00,Wunderground v.1.15,2013-07-13 16:48:00,
2013-07-13 12:53:00,81.9,70.7,30.18,North,5,4.0,9.0,69,0.00,,,0.00,Wunderground v.1.15,2013-07-13 16:53:00,
2013-07-13 12:58:00,82.1,70.5,30.18,NNE,19,1.0,10.0,68,0.00,,,0.00,Wunderground v.1.15,2013-07-13 16:58:00,
2013-07-13 13:03:00,82.6,71.0,30.18,North,360,6.0,11.0,68,0.00,,,0.00,Wunderground v.1.15,2013-07-13 17:03:00,
2013-07-13 13:08:00,83.1,71.0,30.18,ENE,67,10.0,11.0,67,0.00,,,0.00,Wunderground v.1.15,2013-07-13 17:08:00,
2013-07-13 13:13:00,83.0,70.9,30.18,East,88,3.0,8.0,67,0.00,,,0.00,Wunderground v.1.15,2013-07-13 17:13:00,
2013-07-13 13:18:00,83.2,71.1,30.18,East,84,7.0,10.0,67,0.00,,,0.00,Wunderground v.1.15,2013-07-13 17:18:00,
2013-07-13 13:23:00,82.9,69.9,30.18,East,88,5.0,6.0,65,0.00,,,0.00,Wunderground v.1.15,2013-07-13 17:23:00,
2013-07-13 13:28:00,82.7,70.2,30.18,ENE,76,3.0,7.0,66,0.00,,,0.00,Wunderground v.1.15,2013-07-13 17:28:00,
2013-07-13 13:33:00,82.3,70.2,30.18,ENE,70,4.0,7.0,67,0.00,,,0.00,Wunderground v.1.15,2013-07-13 17:33:00,
2013-07-13 13:38:00,81.8,71.1,30.18,East,90,3.0,7.0,70,0.00,,,0.00,Wunderground v.1.15,2013-07-13 17:38:00,
2013-07-13 13:43:00,80.9,69.8,30.18,SSE,166,4.0,5.0,69,0.00,,,0.00,Wunderground v.1.15,2013-07-13 17:43:00,
2013-07-13 13:48:00,80.3,69.6,30.18,SW,229,2.0,7.0,70,0.00,,,0.00,Wunderground v.1.15,2013-07-13 17:48:00,
2013-07-13 13:53:00,79.9,69.7,30.18,East,80,5.0,8.0,71,0.00,,,0.00,Wunderground v.1.15,2013-07-13 17:53:00,
2013-07-13 13:58:00,79.8,70.4,30.18,NE,54,5.0,8.0,73,0.00,,,0.00,Wunderground v.1.15,2013-07-13 17:58:00,
2013-07-13 14:03:00,79.5,70.5,30.18,North,360,3.0,8.0,74,0.00,,,0.00,Wunderground v.1.15,2013-07-13 18:03:00,
2013-07-13 14:08:00,79.5,70.5,30.18,ENE,70,3.0,9.0,74,0.00,,,0.00,Wunderground v.1.15,2013-07-13 18:08:00,
2013-07-13 14:13:00,79.7,70.7,30.17,ENE,78,8.0,8.0,74,0.00,,,0.00,Wunderground v.1.15,2013-07-13 18:13:00,
2013-07-13 14:18:00,79.5,70.5,30.17,NNE,27,2.0,9.0,74,0.00,,,0.00,Wunderground v.1.15,2013-07-13 18:18:00,
2013-07-13 14:23:00,79.6,71.0,30.18,ENE,78,4.0,7.0,75,0.00,,,0.00,Wunderground v.1.15,2013-07-13 18:23:00,
2013-07-13 14:28:00,80.1,71.5,30.17,East,90,2.0,7.0,75,0.00,,,0.00,Wunderground v.1.15,2013-07-13 18:28:00,
2013-07-13 14:33:00,80.9,71.4,30.17,ENE,67,1.0,7.0,73,0.00,,,0.00,Wunderground v.1.15,2013-07-13 18:33:00,
2013-07-13 14:38:00,81.6,71.3,30.17,NNE,13,4.0,7.0,71,0.00,,,0.00,Wunderground v.1.15,2013-07-13 18:38:00,
2013-07-13 14:43:00,82.1,71.3,30.17,ENE,76,2.0,7.0,70,0.00,,,0.00,Wunderground v.1.15,2013-07-13 18:43:00,
2013-07-13 14:48:00,82.5,71.7,30.17,West,267,1.0,7.0,70,0.00,,,0.00,Wunderground v.1.15,2013-07-13 18:48:00,
2013-07-13 14:53:00,83.0,71.3,30.17,NNE,29,3.0,8.0,68,0.00,,,0.00,Wunderground v.1.15,2013-07-13 18:53:00,
2013-07-13 14:58:00,83.3,71.6,30.17,North,5,0.0,8.0,68,0.00,,,0.00,Wunderground v.1.15,2013-07-13 18:58:00,
2013-07-13 15:03:00,83.2,72.0,30.17,ENE,64,2.0,5.0,69,0.00,,,0.00,Wunderground v.1.15,2013-07-13 19:03:00,
2013-07-13 15:08:00,82.7,71.1,30.17,East,86,0.0,5.0,68,0.00,,,0.00,Wunderground v.1.15,2013-07-13 19:08:00,
2013-07-13 15:13:00,82.4,71.2,30.17,SSE,147,1.0,3.0,69,0.00,,,0.00,Wunderground v.1.15,2013-07-13 19:13:00,
2013-07-13 15:18:00,82.1,70.5,30.16,ESE,105,1.0,7.0,68,0.00,,,0.00,Wunderground v.1.15,2013-07-13 19:18:00,
2013-07-13 15:23:00,82.9,71.3,30.16,ESE,109,1.0,5.0,68,0.00,,,0.00,Wunderground v.1.15,2013-07-13 19:23:00,
2013-07-13 15:29:00,83.2,70.7,30.16,SSW,205,3.0,7.0,66,0.00,,,0.00,Wunderground v.1.15,2013-07-13 19:29:00,
2013-07-13 15:34:00,82.9,70.8,30.16,East,98,3.0,8.0,67,0.00,,,0.00,Wunderground v.1.15,2013-07-13 19:34:00,
2013-07-13 15:39:00,82.8,71.2,30.16,East,88,2.0,8.0,68,0.00,,,0.00,Wunderground v.1.15,2013-07-13 19:39:00,
2013-07-13 15:44:00,82.8,70.7,30.16,NNE,24,1.0,2.0,67,0.00,,,0.00,Wunderground v.1.15,2013-07-13 19:44:00,
2013-07-13 15:49:00,82.8,71.6,30.16,SE,140,1.0,5.0,69,0.00,,,0.00,Wunderground v.1.15,2013-07-13 19:49:00,
2013-07-13 15:54:00,83.3,71.2,30.16,SSE,157,2.0,8.0,67,0.00,,,0.00,Wunderground v.1.15,2013-07-13 19:54:00,
2013-07-13 15:59:00,83.3,70.3,30.16,East,82,7.0,9.0,65,0.00,,,0.00,Wunderground v.1.15,2013-07-13 19:59:00,
2013-07-13 16:04:00,83.2,71.1,30.16,East,82,0.0,6.0,67,0.00,,,0.00,Wunderground v.1.15,2013-07-13 20:04:00,
2013-07-13 16:09:00,83.1,71.4,30.16,ESE,111,2.0,6.0,68,0.00,,,0.00,Wunderground v.1.15,2013-07-13 20:09:00,
2013-07-13 16:14:00,82.5,70.9,30.16,SW,219,3.0,6.0,68,0.00,,,0.00,Wunderground v.1.15,2013-07-13 20:14:00,
2013-07-13 16:19:00,82.0,71.2,30.16,West,266,0.0,6.0,70,0.00,,,0.00,Wunderground v.1.15,2013-07-13 20:19:00,
2013-07-13 16:24:00,82.1,70.5,30.16,East,83,2.0,7.0,68,0.00,,,0.00,Wunderground v.1.15,2013-07-13 20:24:00,
2013-07-13 16:29:00,82.0,70.8,30.16,SE,145,1.0,7.0,69,0.00,,,0.00,Wunderground v.1.15,2013-07-13 20:29:00,
2013-07-13 16:34:00,81.9,71.6,30.16,SSE,157,2.0,2.0,71,0.00,,,0.00,Wunderground v.1.15,2013-07-13 20:34:00,
2013-07-13 16:39:00,81.9,71.2,30.16,SE,130,2.0,6.0,70,0.00,,,0.00,Wunderground v.1.15,2013-07-13 20:39:00,
2013-07-13 16:44:00,81.7,71.4,30.16,East,91,6.0,6.0,71,0.00,,,0.00,Wunderground v.1.15,2013-07-13 20:44:00,
2013-07-13 16:49:00,81.3,71.0,30.16,SE,140,1.0,6.0,71,0.00,,,0.00,Wunderground v.1.15,2013-07-13 20:49:00,
2013-07-13 16:54:00,81.3,71.4,30.16,ESE,114,0.0,6.0,72,0.00,,,0.00,Wunderground v.1.15,2013-07-13 20:54:00,
2013-07-13 16:59:00,81.4,71.1,30.16,SE,144,0.0,8.0,71,0.00,,,0.00,Wunderground v.1.15,2013-07-13 20:59:00,
2013-07-13 17:04:00,81.2,71.3,30.16,South,169,1.0,6.0,72,0.00,,,0.00,Wunderground v.1.15,2013-07-13 21:04:00,
2013-07-13 17:09:00,81.2,71.3,30.16,East,84,5.0,6.0,72,0.00,,,0.00,Wunderground v.1.15,2013-07-13 21:09:00,
2013-07-13 17:14:00,81.9,72.0,30.16,SE,141,1.0,7.0,72,0.00,,,0.00,Wunderground v.1.15,2013-07-13 21:14:00,
2013-07-13 17:19:00,82.8,72.0,30.16,ESE,106,0.0,7.0,70,0.00,,,0.00,Wunderground v.1.15,2013-07-13 21:19:00,
2013-07-13 17:24:00,83.4,73.0,30.16,NNW,347,2.0,5.0,71,0.00,,,0.00,Wunderground v.1.15,2013-07-13 21:24:00,
2013-07-13 17:29:00,83.2,71.5,30.16,SSE,154,2.0,9.0,68,0.00,,,0.00,Wunderground v.1.15,2013-07-13 21:29:00,
2013-07-13 17:34:00,82.5,71.3,30.16,SE,146,5.0,6.0,69,0.00,,,0.00,Wunderground v.1.15,2013-07-13 21:34:00,
2013-07-13 17:39:00,81.8,71.1,30.17,SSE,153,2.0,7.0,70,0.00,,,0.00,Wunderground v.1.15,2013-07-13 21:39:00,
2013-07-13 17:44:00,81.3,71.0,30.16,SE,134,3.0,6.0,71,0.00,,,0.00,Wunderground v.1.15,2013-07-13 21:44:00,
2013-07-13 17:49:00,80.9,71.0,30.17,ENE,63,1.0,6.0,72,0.00,,,0.00,Wunderground v.1.15,2013-07-13 21:49:00,
2013-07-13 17:54:00,80.7,71.2,30.17,SE,138,2.0,8.0,73,0.00,,,0.00,Wunderground v.1.15,2013-07-13 21:54:00,
2013-07-13 17:59:00,80.6,71.5,30.17,SE,144,2.0,8.0,74,0.00,,,0.00,Wunderground v.1.15,2013-07-13 21:59:00,
2013-07-13 18:04:00,80.3,70.9,30.17,ESE,111,0.0,5.0,73,0.00,,,0.00,Wunderground v.1.15,2013-07-13 22:04:00,
2013-07-13 18:09:00,80.2,70.8,30.16,East,84,1.0,5.0,73,0.00,,,0.00,Wunderground v.1.15,2013-07-13 22:09:00,
2013-07-13 18:14:00,80.2,71.2,30.16,SE,130,2.0,6.0,74,0.00,,,0.00,Wunderground v.1.15,2013-07-13 22:14:00,
2013-07-13 18:19:00,80.2,71.2,30.16,NE,46,0.0,6.0,74,0.00,,,0.00,Wunderground v.1.15,2013-07-13 22:19:00,
2013-07-13 18:24:00,80.2,71.2,30.16,ESE,108,3.0,5.0,74,0.00,,,0.00,Wunderground v.1.15,2013-07-13 22:24:00,
2013-07-13 18:29:00,80.0,71.0,30.16,East,82,3.0,7.0,74,0.00,,,0.00,Wunderground v.1.15,2013-07-13 22:29:00,
2013-07-13 18:34:00,80.0,71.4,30.17,SSE,155,4.0,6.0,75,0.00,,,0.00,Wunderground v.1.15,2013-07-13 22:34:00,
2013-07-13 18:39:00,79.9,71.3,30.17,SE,136,3.0,6.0,75,0.00,,,0.00,Wunderground v.1.15,2013-07-13 22:39:00,
2013-07-13 18:44:00,79.6,71.0,30.17,SE,132,3.0,5.0,75,0.00,,,0.00,Wunderground v.1.15,2013-07-13 22:44:00,
2013-07-13 18:49:00,79.5,71.3,30.17,ESE,119,1.0,6.0,76,0.00,,,0.00,Wunderground v.1.15,2013-07-13 22:49:00,
2013-07-13 18:54:00,79.5,71.3,30.17,ESE,120,0.0,6.0,76,0.00,,,0.00,Wunderground v.1.15,2013-07-13 22:54:00,
2013-07-13 18:59:00,79.5,71.3,30.17,East,90,3.0,6.0,76,0.00,,,0.00,Wunderground v.1.15,2013-07-13 22:59:00,
2013-07-13 19:04:00,79.3,71.5,30.17,South,180,2.0,5.0,77,0.00,,,0.00,Wunderground v.1.15,2013-07-13 23:04:00,
2013-07-13 19:09:00,79.2,71.4,30.17,WNW,290,1.0,5.0,77,0.00,,,0.00,Wunderground v.1.15,2013-07-13 23:09:00,
2013-07-13 19:14:00,79.1,71.3,30.17,SE,127,3.0,4.0,77,0.00,,,0.00,Wunderground v.1.15,2013-07-13 23:14:00,
2013-07-13 19:19:00,79.2,71.4,30.17,ENE,74,0.0,4.0,77,0.00,,,0.00,Wunderground v.1.15,2013-07-13 23:19:00,
2013-07-13 19:24:00,79.3,71.1,30.17,ESE,102,0.0,3.0,76,0.00,,,0.00,Wunderground v.1.15,2013-07-13 23:24:00,
2013-07-13 19:29:00,79.3,71.5,30.18,ESE,102,0.0,3.0,77,0.00,,,0.00,Wunderground v.1.15,2013-07-13 23:29:00,
2013-07-13 19:34:00,79.5,71.7,30.17,ESE,102,0.0,1.0,77,0.00,,,0.00,Wunderground v.1.15,2013-07-13 23:34:00,
2013-07-13 19:39:00,79.7,71.8,30.17,ESE,102,0.0,2.0,77,0.00,,,0.00,Wunderground v.1.15,2013-07-13 23:39:00,
2013-07-13 19:45:00,79.9,72.4,30.18,ESE,102,0.0,1.0,78,0.00,,,0.00,Wunderground v.1.15,2013-07-13 23:45:00,
2013-07-13 19:50:00,80.0,71.8,30.18,ESE,106,1.0,2.0,76,0.00,,,0.00,Wunderground v.1.15,2013-07-13 23:50:00,
2013-07-13 19:55:00,80.0,71.8,30.18,SE,131,0.0,5.0,76,0.00,,,0.00,Wunderground v.1.15,2013-07-13 23:55:00,
2013-07-13 20:00:00,79.8,71.6,30.18,SE,131,0.0,1.0,76,0.00,,,0.00,Wunderground v.1.15,2013-07-14 00:00:00,
2013-07-13 20:05:00,79.8,72.3,30.18,SE,131,0.0,1.0,78,0.00,,,0.00,Wunderground v.1.15,2013-07-14 00:05:00,
2013-07-13 20:10:00,79.8,71.6,30.18,ENE,70,0.0,1.0,76,0.00,,,0.00,Wunderground v.1.15,2013-07-14 00:10:00,
2013-07-13 20:15:00,79.7,71.8,30.18,ENE,70,1.0,1.0,77,0.00,,,0.00,Wunderground v.1.15,2013-07-14 00:15:00,
2013-07-13 20:20:00,79.7,71.8,30.18,ENE,70,1.0,1.0,77,0.00,,,0.00,Wunderground v.1.15,2013-07-14 00:20:00,
2013-07-13 20:25:00,79.6,72.1,30.19,ENE,70,0.0,2.0,78,0.00,,,0.00,Wunderground v.1.15,2013-07-14 00:25:00,
2013-07-13 20:30:00,79.4,71.9,30.19,ENE,70,1.0,2.0,78,0.00,,,0.00,Wunderground v.1.15,2013-07-14 00:30:00,
2013-07-13 20:35:00,79.3,71.8,30.19,ENE,70,0.0,2.0,78,0.00,,,0.00,Wunderground v.1.15,2013-07-14 00:35:00,
2013-07-13 20:40:00,79.1,71.6,30.19,ENE,70,0.0,0.0,78,0.00,,,0.00,Wunderground v.1.15,2013-07-14 00:40:00,
2013-07-13 20:45:00,78.9,71.8,30.18,ENE,70,2.0,2.0,79,0.00,,,0.00,Wunderground v.1.15,2013-07-14 00:45:00,
2013-07-13 20:50:00,78.7,72.0,30.19,ENE,70,0.0,1.0,80,0.00,,,0.00,Wunderground v.1.15,2013-07-14 00:50:00,
2013-07-13 20:55:00,78.6,72.3,30.19,ENE,70,1.0,1.0,81,0.00,,,0.00,Wunderground v.1.15,2013-07-14 00:55:00,
2013-07-13 21:00:00,78.4,72.1,30.19,ENE,70,1.0,1.0,81,0.00,,,0.00,Wunderground v.1.15,2013-07-14 01:00:00,
2013-07-13 21:05:00,78.2,71.9,30.19,North,360,4.0,6.0,81,0.00,,,0.00,Wunderground v.1.15,2013-07-14 01:05:00,
2013-07-13 21:10:00,77.7,72.1,30.19,North,9,1.0,3.0,83,0.00,,,0.00,Wunderground v.1.15,2013-07-14 01:10:00,
2013-07-13 21:15:00,77.1,71.9,30.19,East,80,1.0,3.0,84,0.00,,,0.00,Wunderground v.1.15,2013-07-14 01:15:00,
2013-07-13 21:20:00,76.8,71.9,30.19,East,80,0.0,1.0,85,0.00,,,0.00,Wunderground v.1.15,2013-07-14 01:20:00,
2013-07-13 21:25:00,76.3,71.8,30.19,East,88,2.0,6.0,86,0.00,,,0.00,Wunderground v.1.15,2013-07-14 01:25:00,
2013-07-13 21:30:00,75.9,71.4,30.19,NE,49,2.0,3.0,86,0.00,,,0.00,Wunderground v.1.15,2013-07-14 01:30:00,
2013-07-13 21:35:00,75.4,71.3,30.19,ENE,69,1.0,3.0,87,0.00,,,0.00,Wunderground v.1.15,2013-07-14 01:35:00,
2013-07-13 21:40:00,75.0,71.2,30.19,ENE,69,0.0,2.0,88,0.00,,,0.00,Wunderground v.1.15,2013-07-14 01:40:00,
2013-07-13 21:45:00,74.7,70.9,30.19,ENE,69,2.0,3.0,88,0.00,,,0.00,Wunderground v.1.15,2013-07-14 01:45:00,
2013-07-13 21:50:00,74.4,70.9,30.19,ENE,69,0.0,1.0,89,0.00,,,0.00,Wunderground v.1.15,2013-07-14 01:50:00,
2013-07-13 21:55:00,74.2,70.7,30.19,ENE,69,0.0,1.0,89,0.00,,,0.00,Wunderground v.1.15,2013-07-14 01:55:00,
2013-07-13 22:01:00,73.9,70.8,30.20,ENE,69,0.0,1.0,90,0.00,,,0.00,Wunderground v.1.15,2013-07-14 02:01:00,
2013-07-13 22:06:00,73.7,70.6,30.20,ENE,69,0.0,1.0,90,0.00,,,0.00,Wunderground v.1.15,2013-07-14 02:06:00,
2013-07-13 22:11:00,73.5,70.4,30.20,ENE,69,0.0,1.0,90,0.00,,,0.00,Wunderground v.1.15,2013-07-14 02:11:00,
2013-07-13 22:16:00,73.3,70.5,30.20,ENE,69,0.0,1.0,91,0.00,,,0.00,Wunderground v.1.15,2013-07-14 02:16:00,
2013-07-13 22:21:00,73.1,70.3,30.20,ENE,69,0.0,1.0,91,0.00,,,0.00,Wunderground v.1.15,2013-07-14 02:21:00,
2013-07-13 22:26:00,73.0,70.2,30.21,ENE,69,0.0,1.0,91,0.00,,,0.00,Wunderground v.1.15,2013-07-14 02:26:00,
2013-07-13 22:31:00,72.8,70.3,30.21,ENE,69,0.0,0.0,92,0.00,,,0.00,Wunderground v.1.15,2013-07-14 02:31:00,
2013-07-13 22:36:00,72.6,70.1,30.21,ENE,69,0.0,0.0,92,0.00,,,0.00,Wunderground v.1.15,2013-07-14 02:36:00,
2013-07-13 22:41:00,72.5,70.0,30.21,ENE,69,0.0,0.0,92,0.00,,,0.00,Wunderground v.1.15,2013-07-14 02:41:00,
2013-07-13 22:46:00,72.3,70.2,30.21,ENE,69,0.0,0.0,93,0.00,,,0.00,Wunderground v.1.15,2013-07-14 02:46:00,
2013-07-13 22:51:00,72.2,70.1,30.21,ENE,69,0.0,0.0,93,0.00,,,0.00,Wunderground v.1.15,2013-07-14 02:51:00,
2013-07-13 22:56:00,72.1,70.0,30.21,ENE,69,0.0,0.0,93,0.00,,,0.00,Wunderground v.1.15,2013-07-14 02:56:00,
2013-07-13 23:01:00,71.9,69.8,30.21,ENE,69,0.0,0.0,93,0.00,,,0.00,Wunderground v.1.15,2013-07-14 03:01:00,
2013-07-13 23:06:00,71.8,70.0,30.21,ENE,69,0.0,0.0,94,0.00,,,0.00,Wunderground v.1.15,2013-07-14 03:06:00,
2013-07-13 23:11:00,71.7,69.9,30.21,ENE,69,0.0,0.0,94,0.00,,,0.00,Wunderground v.1.15,2013-07-14 03:11:00,
2013-07-13 23:16:00,71.7,69.9,30.21,ENE,69,0.0,0.0,94,0.00,,,0.00,Wunderground v.1.15,2013-07-14 03:16:00,
2013-07-13 23:21:00,71.8,70.0,30.21,ENE,69,0.0,0.0,94,0.00,,,0.00,Wunderground v.1.15,2013-07-14 03:21:00,
2013-07-13 23:26:00,71.7,69.9,30.21,ENE,69,0.0,0.0,94,0.00,,,0.00,Wunderground v.1.15,2013-07-14 03:26:00,
2013-07-13 23:31:00,71.6,70.1,30.21,ENE,69,0.0,0.0,95,0.00,,,0.00,Wunderground v.1.15,2013-07-14 03:31:00,
2013-07-13 23:36:00,71.5,70.0,30.21,ENE,69,0.0,0.0,95,0.00,,,0.00,Wunderground v.1.15,2013-07-14 03:36:00,
2013-07-13 23:41:00,71.4,69.9,30.21,ENE,69,0.0,0.0,95,0.00,,,0.00,Wunderground v.1.15,2013-07-14 03:41:00,
2013-07-13 23:46:00,71.4,69.9,30.21,ENE,69,0.0,0.0,95,0.00,,,0.00,Wunderground v.1.15,2013-07-14 03:46:00,
2013-07-13 23:51:00,71.3,69.8,30.21,ENE,69,0.0,0.0,95,0.00,,,0.00,Wunderground v.1.15,2013-07-14 03:51:00,
2013-07-13 23:56:00,71.2,69.7,30.21,ENE,69,0.0,0.0,95,0.00,,,0.00,Wunderground v.1.15,2013-07-14 03:56:00,